Showing default

ERMIS2, 68420

Orbit data source: Space-Track

ERMIS2, 68420 is a Greek payload satellite in SSO that was launched on Mon, 30 Mar 2026 UTC via an FALCON 9 launch vehicle from the Air Force Western Test Range (AFWTR). Payload-class satellites include a variety of spacecraft equipped with specific instruments for various scientific and technological missions. These include communications satellites like Starlink; space stations such as the ISS; scientific satellites like the Hubble; Earth observation satellites from companies like Planet Labs, Umbra, and HawkEye 360; GPS; miniature CubeSats for education and research; and military/defense satellites.

Loading next visibility...
Identifier
68420, 2026-067E
Orbit
SSO
Country
Flag of GRGR / GREC
Related business
Manufacturer
NKUA
Mission
Operational Amateur Communications
Bus & Motor
CUBESAT 6U, Unknown motor
Mass
~10 kg wet, ~10 kg dry
Launch date (UTC)
2026-03-30 (6 months ago)
Launch vehicle
FALCON 9
Launch site
Air Force Western Test Range (AFWTR)
Object type
Payload
Rocket body
Debris
Shape & HBR
Box, 0.2 m
Radar Cross Section
0.035 m², Medium (>0.1 m² and < 1m²)

Expand to show TLE details & history
Last TLE update: 13 hours ago

TLE from 13 hours ago
0 ERMIS2
1 68420U 26067E   26263.11583934  .00006956  00000-0  31430-3 0  9994
2 68420  97.4569 220.5564 0001037  72.9902 287.1448 15.21267388 26371
Epoch: 2026-09-20T02:46Z
TLE epoch observation values (Epoch: 2026-09-20T02:46:48.518Z)
Latitude
0.00002°
Longitude
179.83959°
Altitude
504.897 km
Speed
7.612 km/s
True Right ascension
14h 42m 13s
True Declination
0° 00' 00"
Sunlit
Object was in daylight at epoch
Visualization orbit readout
Latitude
Unknown
Longitude
Unknown
Altitude
Unknown
Speed
Unknown
Apparent Right ascension
Unknown
Apparent Declination
Unknown
Sunlit
N/A
Visualization observer readout
Local Sidereal Time
08:43:59
Azimuth
Unknown
Elevation
Unknown
Doppler factor
Unknown
Orbital elements
Apogee altitude
499.696 km
Perigee altitude
498.27 km
Semi-major axis
6,877.12 km
Eccentricity
0.0001
Inclination
97.4569°
RAAN
220.5564°
Arg. of periapsis
72.9902°
True anomaly
287.13344°
Mean anomaly
287.1448°
Eccentric anomaly
287.13912°
Mean motion
3.80569 °/min
Orbital period
94.6 mins
BSTAR
0.0003143
Loading maneuver chart data...
Computing Atmospheric mass density...
Loading historical data...
Loading historical data...
Loading historical data...
Loading historical data...
Loading historical data...
Loading historical data...
Loading historical data...

Documentation

Showing up to 5 results
|